{"data":{"norad_id":42955,"intl_designator":"2017-061A","name":"IRIDIUM 133","alt_names":[],"object_type":"PAYLOAD","status":"ACTIVE","operator":null,"country":"US","launch_date":"2017-10-09","launch_site_code":"AFWTR","launch_vehicle":null,"mission":null,"orbit_class":"UNKNOWN","rcs_meters":null,"size_class":null,"mass_kg":null,"dimensions":null,"purposes":["comms"],"wikipedia_slug":null,"has_3d_model":false,"image_url":null,"decayed_at":null,"tle_current":{"epoch":"2026-09-20T04:41:58.744320Z","epoch_age_seconds":41749,"freshness":"FRESH","line1":"1 42955U 17061A   26263.19581880  .00000019  00000+0 -22382-6 0  9992","line2":"2 42955  86.4023 345.5710 0002172  94.4402 265.7042 14.34217687468399","mean_motion":14.34217687,"eccentricity":0.0002172,"inclination_deg":86.4023,"raan_deg":345.571,"arg_perigee_deg":94.4402,"mean_anomaly_deg":265.7042,"bstar":-2.2382e-7,"rev_number":46839,"period_min":100.40316843478,"perigee_km":776.11312319805,"apogee_km":779.22160461374,"semimajor_km":7155.8043639059,"source":"CELESTRAK","updated_at":"2026-09-20T09:00:36.324076Z"}}}